This demonstration page uses our WeatherBlox Daily Observations layout. Learn more.

Left ArrowRight Arrow

Hourly Observations for December 3, 2015

Temp ( °F °C ) Dew Point ( °F °C ) Humidity (%) Winds ( mph kmh ) Pressure ( in mb ) Visibility ( mi km ) Precip ( " mm )
12:51 am 00:51 Clear 42 5.6 10 -12.2 27 27 ESE 10 17 30.20 1023 10 16 N/A
1:51 am 01:51 Clear 42 5.6 10 -12.2 27 27 ESE 9 15 30.19 1022 10 16 N/A
2:51 am 02:51 Clear 42 5.6 10 -12.2 27 27 SE 10 17 30.20 1023 10 16 N/A
3:51 am 03:51 Clear 40 4.4 11 -11.7 30 30 SE 14 22 30.20 1023 10 16 N/A
4:51 am 04:51 Clear 40 4.4 11 -11.7 30 30 SSE 12 19 30.21 1023 10 16 N/A
5:51 am 05:51 Clear 36 2.2 11 -11.7 35 35 SE 13 20 30.24 1024 10 16 N/A
6:51 am 06:51 Clear 40 4.4 10 -12.2 29 29 SE 14 22 30.24 1024 10 16 N/A
7:51 am 07:51 Sunny 41 5 11 -11.7 29 29 SE 10 17 30.28 1025 10 16 N/A
8:51 am 08:51 Sunny 46 7.8 11 -11.7 24 24 ESE 10 17 30.28 1025 10 16 N/A
9:51 am 09:51 Sunny 50 10 11 -11.7 21 21 SE 12 19 30.27 1025 10 16 N/A
10:51 am 10:51 Sunny 55 12.8 11 -11.7 17 17 SE 12 19 30.25 1025 10 16 N/A
11:51 am 11:51 Sunny 58 14.4 11 -11.7 15 15 SE 13 20 30.20 1023 10 16 N/A
12:51 pm 12:51 Sunny 62 16.7 12 -11.1 14 14 SSE 9 15 30.15 1021 10 16 N/A
1:51 pm 13:51 Sunny 63 17.2 11 -11.7 13 13 SSE 12 19 30.11 1020 10 16 N/A
2:51 pm 14:51 Sunny 64 17.8 12 -11.1 13 13 SSE 10 17 30.09 1019 10 16 N/A
3:51 pm 15:51 Sunny 64 17.8 12 -11.1 13 13 SSE 9 15 30.09 1019 10 16 N/A
4:51 pm 16:51 Sunny 62 16.7 13 -10.6 14 14 S 5 7 30.09 1019 10 16 N/A
5:51 pm 17:51 Clear 52 11.1 12 -11.1 20 20 E 5 7 30.12 1020 10 16 N/A
6:51 pm 18:51 Clear 53 11.7 12 -11.1 19 19 E 10 17 30.13 1020 10 16 N/A
7:51 pm 19:51 Clear 47 8.3 13 -10.6 25 25 ESE 7 11 30.14 1021 10 16 N/A
8:51 pm 20:51 Clear 48 8.9 13 -10.6 24 24 E 9 15 30.14 1021 10 16 N/A
9:51 pm 21:51 Clear 44 6.7 14 -10 30 30 SE 8 13 30.15 1021 10 16 N/A
10:51 pm 22:51 Clear 43 6.1 13 -10.6 29 29 ESE 8 13 30.15 1021 10 16 N/A
11:51 pm 23:51 Hazy 44 6.7 14 -10 30 30 ESE 8 13 30.14 1021 3 4 N/A

Powered by AerisWeather